Weather History for KOLS - October, 2013

Change the Weather History Date:

Thursday, October 3, 2013

  Actual Average (KTUS) Record (KTUS)
Temperature  
Mean Temperature 70 °F 76 °F  
Max Temperature 86 °F 89 °F 102 °F (1993)
Min Temperature 53 °F 62 °F 45 °F (1930)
Degree Days  
Heating Degree Days 0 0  
Month to date heating degree days 0  
Since 1 July heating degree days 0  
Cooling Degree Days 4 11  
Month to date cooling degree days 34  
Year to date cooling degree days 2941  
Growing Degree Days 20 (Base 50)    
Moisture  
Dew Point 41 °F    
Average Humidity 40    
Maximum Humidity 80    
Minimum Humidity 16    
Precipitation  
Precipitation 0.00 in 0.04 in 1.18 in (1914)
Month to date precipitation 0.11  
Year to date precipitation 9.31  
Sea Level Pressure  
Sea Level Pressure 29.79 in    
Wind  
Wind Speed 6 mph (South)    
Max Wind Speed 17 mph    
Max Gust Speed 24 mph    
Visibility 10 miles    
Events      
T = Trace of Precipitation, MM = Missing Value Source: NWS Daily Summary

Daily Weather History Graph

Daily Weather History Graph

Search for Another Location

Airport or City:

Trip Planner

Search our weather history database for the weather conditions in past years. The results will help you decide how hot, cold, wet, or windy it might be!

Date:

Astronomy

Oct. 03, 2013 Rise Set
Actual Time 6:18 AM MST 6:05 PM MST
Civil Twilight 5:54 AM MST 6:29 PM MST
Nautical Twilight 5:26 AM MST 6:57 PM MST
Astronomical Twilight 4:57 AM MST 7:25 PM MST
Moon 4:58 AM MST (10/3) 5:14 PM MST (10/3)
Length of Visible Light 12h 35m
Length of Day
11h 46m
Waning Crescent, 2% of the Moon is Illuminated
Oct 3
Waning Crescent
Oct 4
New
Oct 11
First Quarter
Oct 18
Full
Oct 26
Last Quarter

Hourly Weather History & Observations

Time (MST) Temp. Dew Point Humidity Pressure Visibility Wind Dir Wind Speed Gust Speed Precip Events Conditions
12:54 AM 60.1 °F 41.0 °F 49% 29.83 in 10.0 mi SE 3.5 mph - N/A   Clear
1:54 AM 60.1 °F 43.0 °F 53% 29.83 in 10.0 mi East 5.8 mph - N/A   Clear
2:54 AM 57.9 °F 43.0 °F 58% 29.82 in 10.0 mi Calm Calm - N/A   Clear
3:54 AM 57.0 °F 46.0 °F 67% 29.82 in 10.0 mi East 3.5 mph - N/A   Clear
4:54 AM 53.1 °F 41.0 °F 64% 29.83 in 10.0 mi SE 3.5 mph - N/A   Clear
5:54 AM 54.0 °F 45.0 °F 72% 29.84 in 10.0 mi Calm Calm - N/A   Clear
6:54 AM 54.0 °F 48.0 °F 80% 29.86 in 10.0 mi NE 3.5 mph - N/A   Clear
7:54 AM 62.1 °F 48.0 °F 60% 29.87 in 10.0 mi Calm Calm - N/A   Clear
8:54 AM 72.0 °F 50.0 °F 46% 29.85 in 10.0 mi South 8.1 mph - N/A   Clear
9:54 AM 78.1 °F 46.0 °F 32% 29.83 in 10.0 mi South 9.2 mph - N/A   Clear
10:54 AM 81.0 °F 45.0 °F 28% 29.81 in 10.0 mi SSW 15.0 mph 20.7 mph N/A   Clear
11:54 AM 82.0 °F 45.0 °F 27% 29.79 in 10.0 mi South 9.2 mph 20.7 mph N/A   Clear
12:54 PM 82.9 °F 41.0 °F 23% 29.76 in 10.0 mi WSW 8.1 mph 20.7 mph N/A   Clear
1:54 PM 84.9 °F 36.0 °F 17% 29.73 in 10.0 mi SSW 12.7 mph 23.0 mph N/A   Clear
2:54 PM 86.0 °F 34.0 °F 16% 29.72 in 10.0 mi SSW 11.5 mph 20.7 mph N/A   Clear
3:54 PM 84.9 °F 37.9 °F 19% 29.72 in 10.0 mi SSW 17.3 mph 24.2 mph N/A   Clear
4:54 PM 82.9 °F 32.0 °F 16% 29.72 in 10.0 mi SW 17.3 mph 24.2 mph N/A   Clear
5:54 PM 79.0 °F 35.1 °F 20% 29.73 in 10.0 mi SSW 13.8 mph - N/A   Clear
6:54 PM 73.9 °F 35.1 °F 24% 29.76 in 10.0 mi SW 6.9 mph - N/A   Clear
7:54 PM 71.1 °F 36.0 °F 28% 29.77 in 10.0 mi SSW 3.5 mph - N/A   Clear
9:54 PM 66.9 °F 37.9 °F 34% 29.77 in 10.0 mi South 6.9 mph - N/A   Clear
10:54 PM 66.0 °F 43.0 °F 43% 29.77 in 10.0 mi SSE 5.8 mph - N/A   Clear
11:54 PM 64.9 °F 43.0 °F 45% 29.77 in 10.0 mi SSE 5.8 mph - N/A   Clear